Peru, IN

1:29 AM EDT on July 21, 2017 (GMT -0400)
Grissom Air Reserve Base

Weather History for KGUS - October, 2011

Change the Weather History Date:

Tuesday, October 18, 2011

  Actual Average Record
Temperature  
Mean Temperature 46 °F -  
Max Temperature 50 °F 59 °F 80 °F (2007)
Min Temperature 42 °F 41 °F 27 °F (2015)
Degree Days  
Heating Degree Days 19    
Moisture  
Dew Point 45 °F    
Average Humidity 98    
Maximum Humidity 100    
Minimum Humidity 47    
Precipitation  
Precipitation 0.32 in - - ()
Sea Level Pressure  
Sea Level Pressure 29.82 in    
Wind  
Wind Speed 6 mph (West)    
Max Wind Speed 9 mph    
Max Gust Speed -    
Visibility 8 miles    
Events Rain    
Averages and records for this station are not official NWS values.
T = Trace of Precipitation, MM = Missing Value Source: NWS Daily Summary

Daily Weather History Graph

Daily Weather History Graph

Search for Another Location

Airport or City:

Trip Planner

Search our weather history database for the weather conditions in past years. The results will help you decide how hot, cold, wet, or windy it might be!

Date:

Astronomy

Oct. 18, 2011 Rise Set
Actual Time 7:58 AM EDT 7:00 PM EDT
Civil Twilight 7:31 AM EDT 7:27 PM EDT
Nautical Twilight 6:59 AM EDT 7:59 PM EDT
Astronomical Twilight 6:27 AM EDT 8:31 PM EDT
Moon 11:39 PM EDT (10/18) 1:50 PM EDT (10/18)
Length of Visible Light 11h 56m
Length of Day
11h 01m
Waning Gibbous, 65% of the Moon is Illuminated
Oct 18
Waning Gibbous
Oct 19
Last Quarter
Oct 26
New
Nov 2
First Quarter
Nov 10
Full

Hourly Weather History & Observations

Time (EDT) Temp. Windchill Dew Point Humidity Pressure Visibility Wind Dir Wind Speed Gust Speed Precip Events Conditions
12:55 AM 50.4 °F - 30.6 °F 47% 29.87 in 10.0 mi WSW 9.2 mph - N/A   Mostly Cloudy
1:29 AM 48.2 °F - 41.0 °F 76% 29.86 in 10.0 mi WSW 8.1 mph - N/A   Light Drizzle
1:31 AM 48.2 °F - 41.0 °F 76% 29.86 in 10.0 mi WSW 9.2 mph - N/A   Clear
1:55 AM 47.1 °F - 46.2 °F 97% 29.86 in 10.0 mi SW 9.2 mph - 0.00 in   Mostly Cloudy
2:55 AM 45.9 °F 41.2 °F 45.9 °F 100% 29.85 in 10.0 mi WSW 9.2 mph - N/A   Overcast
3:55 AM 45.1 °F 41.4 °F 45.1 °F 100% 29.84 in 10.0 mi WSW 6.9 mph - N/A   Overcast
4:55 AM 44.1 °F 41.5 °F 44.1 °F 100% 29.83 in 10.0 mi SW 4.6 mph - N/A   Overcast
5:55 AM 44.4 °F 40.5 °F 44.4 °F 100% 29.83 in 10.0 mi WSW 6.9 mph - N/A   Overcast
6:55 AM 44.6 °F 40.2 °F 44.6 °F 100% 29.84 in 10.0 mi West 8.1 mph - N/A   Mostly Cloudy
7:14 AM 44.6 °F 40.7 °F 44.6 °F 100% 29.82 in 10.0 mi WSW 6.9 mph - N/A   Mostly Cloudy
7:55 AM 44.6 °F 41.4 °F 44.6 °F 100% 29.83 in 10.0 mi West 5.8 mph - N/A   Clear
8:55 AM 44.8 °F 42.4 °F 44.8 °F 100% 29.83 in 10.0 mi SW 4.6 mph - N/A   Mostly Cloudy
9:36 AM 44.6 °F 42.2 °F 44.6 °F 100% 29.82 in 10.0 mi SW 4.6 mph - N/A   Scattered Clouds
9:46 AM 44.6 °F 41.4 °F 44.6 °F 100% 29.84 in 10.0 mi WSW 5.8 mph - N/A   Light Drizzle
9:55 AM 45.3 °F 43.0 °F 45.3 °F 100% 29.84 in 7.0 mi West 4.6 mph - 0.00 in   Light Drizzle
9:58 AM 44.6 °F 41.4 °F 44.6 °F 100% 29.84 in 10.0 mi West 5.8 mph - N/A   Overcast
10:21 AM 46.4 °F 44.3 °F 46.4 °F 100% 29.84 in 10.0 mi WSW 4.6 mph - N/A Rain Light Rain
10:30 AM 44.6 °F 41.4 °F 44.6 °F 100% 29.83 in 10.0 mi WSW 5.8 mph - N/A Rain Light Rain
10:55 AM 45.3 °F 42.3 °F 45.3 °F 100% 29.85 in 9.0 mi WSW 5.8 mph - 0.00 in Rain Light Rain
11:28 AM 46.4 °F 45.2 °F 46.4 °F 100% 29.83 in 10.0 mi SSW 3.5 mph - N/A Rain Light Rain
11:35 AM 46.4 °F 43.5 °F 46.4 °F 100% 29.83 in 10.0 mi SSW 5.8 mph - N/A   Overcast
11:41 AM 46.4 °F 45.2 °F 46.4 °F 100% 29.83 in 10.0 mi SW 3.5 mph - N/A   Light Drizzle
11:55 AM 45.9 °F - 45.9 °F 100% 29.83 in 10.0 mi Calm Calm - 0.01 in Rain Light Rain
12:55 PM 46.0 °F - 46.0 °F 100% 29.83 in 9.0 mi Calm Calm - 0.03 in Rain Light Rain
1:55 PM 46.4 °F 43.5 °F 46.4 °F 100% 29.83 in 6.0 mi SW 5.8 mph - 0.05 in Rain Light Rain
2:00 PM 46.4 °F 43.5 °F 46.4 °F 100% 29.83 in 6.0 mi WSW 5.8 mph - N/A Rain Light Rain
2:21 PM 46.4 °F 43.5 °F 46.4 °F 100% 29.81 in 6.0 mi WNW 5.8 mph - N/A Rain Light Rain
2:40 PM 46.4 °F 45.2 °F 46.4 °F 100% 29.79 in 6.0 mi NNW 3.5 mph - N/A Rain Light Rain
2:55 PM 46.2 °F - 46.2 °F 100% 29.78 in 6.0 mi Calm Calm - 0.01 in   Light Drizzle
3:12 PM 46.4 °F - 46.4 °F 100% 29.80 in 10.0 mi Calm Calm - N/A   Light Drizzle
3:17 PM 46.4 °F - 46.4 °F 100% 29.80 in 6.0 mi Calm Calm - N/A   Overcast
3:20 PM 46.4 °F - 46.4 °F 100% 29.80 in 6.0 mi Calm Calm - N/A Rain Light Rain
3:33 PM 46.4 °F 44.3 °F 46.4 °F 100% 29.81 in 4.0 mi West 4.6 mph - N/A Rain Light Rain
3:55 PM 46.2 °F 44.1 °F 46.2 °F 100% 29.79 in 5.0 mi North 4.6 mph - 0.03 in Rain Light Rain
4:02 PM 46.4 °F 43.5 °F 46.4 °F 100% 29.77 in 5.0 mi NNE 5.8 mph - N/A Rain Light Rain
4:28 PM 46.4 °F 43.5 °F 46.4 °F 100% 29.79 in 7.0 mi NNW 5.8 mph - N/A Rain Light Rain
4:30 PM 46.4 °F 42.9 °F 46.4 °F 100% 29.80 in 6.0 mi NW 6.9 mph - N/A Rain Rain
4:55 PM 46.0 °F 43.9 °F 46.0 °F 100% 29.82 in 9.0 mi Variable 4.6 mph - 0.03 in Rain Light Rain
5:01 PM 46.4 °F 44.3 °F 46.4 °F 100% 29.83 in 6.0 mi WNW 4.6 mph - N/A Rain Light Rain
5:08 PM 46.4 °F 45.2 °F 46.4 °F 100% 29.83 in 7.0 mi WNW 3.5 mph - N/A Rain Light Rain
5:16 PM 46.4 °F 45.2 °F 46.4 °F 100% 29.84 in 4.0 mi WNW 3.5 mph - N/A Rain Rain
5:20 PM 46.4 °F 42.9 °F 46.4 °F 100% 29.83 in 5.0 mi NW 6.9 mph - N/A Rain Rain
5:55 PM 44.2 °F 39.2 °F 44.2 °F 100% 29.83 in 7.0 mi North 9.2 mph - 0.11 in Rain Rain
6:01 PM 44.6 °F 40.2 °F 44.6 °F 100% 29.82 in 6.0 mi North 8.1 mph - N/A Rain Rain
6:55 PM 43.7 °F 39.1 °F 43.7 °F 100% 29.81 in 10.0 mi NNW 8.1 mph - 0.04 in Rain Light Rain
7:55 PM 43.5 °F 38.9 °F 43.5 °F 100% 29.81 in 10.0 mi North 8.1 mph - 0.01 in Rain Light Rain
8:12 PM 42.8 °F 39.3 °F 42.8 °F 100% 29.81 in 10.0 mi North 5.8 mph - N/A   Overcast
8:55 PM 43.3 °F 39.2 °F 43.3 °F 100% 29.79 in 10.0 mi NNE 6.9 mph - 0.00 in   Overcast
9:55 PM 43.3 °F 39.9 °F 43.3 °F 100% 29.79 in 10.0 mi NE 5.8 mph - N/A   Overcast
10:55 PM 43.7 °F 40.3 °F 43.7 °F 100% 29.78 in 10.0 mi NNE 5.8 mph - N/A   Overcast
11:54 PM 44.6 °F 40.7 °F 44.6 °F 100% 29.75 in 10.0 mi North 6.9 mph - N/A Rain Light Rain